Regional Weather Roundup
Issued by NWS

Home | Current Version | Previous Version | Text Only | Print | Product List | Glossary On
Versions: 1 2 3 4 5 6 7 8 9 10 11 12 13 14 15 16 17 18 19 20 21 22 23 24 25 26 27 28 29 30 31 32 33 34 35 36 37 38 39 40 41 42 43 44 45 46 47 48 49 50
533
ASUS43 KLSX 252059
RWRMO

WEATHER SUMMARY FOR MISSOURI
NATIONAL WEATHER SERVICE SPRINGFIELD MO
400 PM CDT SUN JUN 25 2017

NOTE: "FAIR" INDICATES FEW OR NO CLOUDS BELOW 12,000 FEET WITH NO
       SIGNIFICANT WEATHER AND/OR OBSTRUCTIONS TO VISIBILITY.
       CURRENT SKY AND/OR WEATHER CONDITIONS ARE NOT AVAILABLE FOR
       CHILLICOTHE AND FARMINGTON.

MOZ001>031-035>038-043-044-053-054-252200-
...NORTHERN AND WESTERN MISSOURI...

CITY           SKY/WX    TMP DP  RH WIND       PRES   REMARKS
KANSAS CTY INT CLOUDY    67  53  61 W7        30.29R
KANSAS C DTWN  LGT RAIN  73  46  38 NW10      30.27R
LEE`S SUMMIT   CLOUDY    74  48  39 NW12      30.28R
ST JOSEPH      PTSUNNY   75  49  39 SW8       30.27S
CHILLICOTHE      N/A     75  46  35 VRB5      30.24F
KIRKSVILLE     SUNNY     74  44  34 W13       30.23F

$$
MOZ066>068-077>081-088>096-101>105-252200-
...SOUTHWEST MISSOURI...

CITY           SKY/WX    TMP DP  RH WIND       PRES   REMARKS
SPRINGFIELD    SUNNY     82  58  43 W9        30.25F
JOPLIN         MOSUNNY   83  56  39 N6        30.25F
BRANSON        MOSUNNY   81  48  32 W3        30.25F

$$
MOZ032>034-039>042-045>050-055>058-069>072-252200-
...CENTRAL MISSOURI...

CITY           SKY/WX    TMP DP  RH WIND       PRES   REMARKS
COLUMBIA       SUNNY     80  50  34 W14       30.22F
JEFFERSON CITY SUNNY     81  46  29 NW13      30.21F
ROLLA          MOSUNNY   80  50  34 W10       30.22S
SEDALIA        SUNNY     80  53  39 NW9       30.24F
WARRENSBURG    PTSUNNY   75  46  35 NW7       30.25S
OSAGE BEACH    SUNNY     80  52  37 VRB7      30.23F

$$
MOZ051-052-059>065-252200-
...EAST CENTRAL MISSOURI...

CITY           SKY/WX    TMP DP  RH WIND       PRES   REMARKS
ST LOUIS INTL  MOSUNNY   84  45  25 NW18G24   30.17F
SPIRIT OF STL  SUNNY     83  47  28 W15       30.17F
ST CHARLES     SUNNY     82  45  27 NW17G28   30.16F

$$
MOZ072>076-082>087-097>100-106>115-252200-
...SOUTH CENTRAL AND SOUTHEAST MISSOURI...

CITY           SKY/WX    TMP DP  RH WIND       PRES   REMARKS
CAPE GIRARDEAU SUNNY     84  50  30 NW10      30.16F
FARMINGTON     MOSUNNY   80  48  32 NW12G17   30.20F
POPLAR BLUFF   SUNNY     86  50  28 W7        30.17F
WEST PLAINS    MOSUNNY   84  48  28 VRB5      30.23F

$$




USA.gov is the U.S. government's official web portal to all federal, state and local government web resources and services.